Flag for France Weather past 2 weeks in Amiens, France

Now
43 °F

Broken clouds.


Feels Like: 37 °F
Forecast: 38 / 47 °F
Wind: 9 mph from Southwest

Location: Beauvais Airport

Current Time: Mar 2, 2015 at 9:16:18 AM

Latest Report: Mar 2, 2015 at 8:30 AM


Visibility: N/A

Pressure: 29.77 "Hg

Humidity: 87%

Dew point: 39 °F

Location of AmiensLocation

Historic Weather in Amiens — Graph

°F

Amiens temperature yesterday

Maximum temperature yesterday: 54 °F (at 1:00 PM)
Minimum temperature yesterday: 45 °F (at 12:00 AM)
Average temperature yesterday: 49 °F

Past Weeks' High & Low Weather Summary

 TemperatureHumidityPressure
High54 °F (Mar 1, 1:00 PM)100% (Feb 15, 9:00 PM)30.74 "Hg (Feb 15, 9:00 PM)
Low25 °F (Feb 18, 4:00 AM)50% (Feb 27, 4:30 PM)29.39 "Hg (Feb 23, 5:00 AM)
Average41 °F88%29.98 "Hg
* Reported Feb 15 8:00 AM — Mar 2 8:00 AM, Amiens, Weather by CustomWeather, © 2015

Note: Actual official high and low records may vary slightly from our data, if they occured in-between our weather recording intervals... More about our weather records

Advertising

Amiens weather history for previous 24 hours

 ConditionsComfort  
Time TempWeatherWind HumidityBarometerVisibility
8:00 AM
Mon, Mar 2
43 °FScattered clouds.7 mph87%29.77 "HgN/A
7:30 AM43 °FPartly cloudy.9 mph87%29.74 "HgN/A
7:00 AM43 °FPassing clouds.13 mph87%29.74 "HgN/A
6:30 AM43 °FPassing clouds.10 mph87%29.74 "HgN/A
6:00 AM43 °FPassing clouds.14 mph81%29.71 "HgN/A
5:30 AM43 °FClear.12 mph87%29.71 "HgN/A
5:00 AM43 °FClear.12 mph81%29.71 "HgN/A
4:30 AM45 °FPassing clouds.15 mph76%29.71 "HgN/A
4:00 AM45 °FPartly cloudy.9 mph81%29.71 "HgN/A
3:30 AM45 °FPassing clouds.12 mph87%29.71 "HgN/A
3:00 AM45 °FPassing clouds.7 mph87%29.68 "HgN/A
2:30 AM45 °FPartly cloudy.12 mph81%29.68 "HgN/A
2:00 AM45 °FPassing clouds.10 mph81%29.68 "HgN/A
1:30 AM45 °FMostly cloudy.13 mph81%29.68 "HgN/A
1:00 AM46 °FMostly cloudy.17 mph71%29.68 "HgN/A
12:30 AM46 °FLight rain. Passing clouds.21 mph76%29.65 "HgN/A
12:00 AM46 °FPassing clouds.14 mph87%29.65 "HgN/A
11:30 PM
Sun, Mar 1
46 °FPartly cloudy.17 mph87%29.65 "HgN/A
11:00 PM48 °FLight rain. Partly cloudy.23 mph82%29.62 "HgN/A
10:00 PM48 °FPartly cloudy.16 mph94%29.62 "HgN/A
9:30 PM48 °FPartly cloudy.18 mph94%29.62 "HgN/A
8:30 PM46 °FLight rain. Mostly cloudy.9 mph93%29.65 "HgN/A
8:00 PM46 °FDrizzle. Mostly cloudy.10 mph87%29.65 "Hg6 mi
7:30 PM48 °FPartly cloudy.16 mph76%29.65 "HgN/A
7:00 PM48 °FClear.17 mph76%29.65 "HgN/A
6:30 PM50 °FClear.16 mph71%29.65 "HgN/A
6:00 PM50 °FBroken clouds.12 mph71%29.65 "HgN/A
5:30 PM52 °FMostly cloudy.18 mph72%29.68 "HgN/A
5:00 PM52 °FPartly sunny.13 mph67%29.68 "HgN/A
4:30 PM52 °FPartly sunny.16 mph67%29.71 "HgN/A
4:00 PM52 °FBroken clouds.17 mph62%29.71 "HgN/A
3:30 PM52 °FPartly sunny.18 mph62%29.74 "HgN/A
3:00 PM54 °FPartly sunny.17 mph58%29.74 "HgN/A
2:30 PM54 °FPartly sunny.18 mph63%29.74 "HgN/A
2:00 PM54 °FPartly sunny.21 mph63%29.74 "HgN/A
1:30 PM52 °FPartly sunny.22 mph62%29.77 "HgN/A
1:00 PM54 °FPartly sunny.21 mph63%29.77 "HgN/A
12:30 PM52 °FOvercast.22 mph67%29.77 "HgN/A
12:00 PM52 °FPartly sunny.20 mph72%29.77 "HgN/A
11:30 AM52 °FScattered clouds.20 mph67%29.77 "HgN/A
11:00 AM52 °FPartly sunny.16 mph67%29.77 "HgN/A
10:30 AM50 °FScattered clouds.20 mph71%29.77 "HgN/A
10:00 AM50 °FOvercast.18 mph71%29.77 "HgN/A
9:30 AM50 °FMostly cloudy.17 mph71%29.77 "HgN/A
9:00 AM50 °FOvercast.17 mph71%29.74 "HgN/A
Weather by CustomWeather, © 2015

See weather overviewHow to use our weather pages